| time (UTC) | temp F | wind direction | speed MPH | gust MPH | rain 1hr in | rain 24hr in | rain mn in | humidity % | barometer mb |
| 20260831082635 | 65 | 124 | 0.0 | 1.0 | 0.00 | 0.00 | 0.00 | 89 | 1019.9 |
| 20260831081615 | 65 | 106 | 0.0 | 1.0 | 0.00 | 0.00 | 0.00 | 90 | 1019.9 |
| 20260831080636 | 65 | 102 | 0.0 | 1.0 | 0.00 | 0.00 | 0.00 | 89 | 1019.9 |
| 20260831075615 | 65 | 0.0 | 0.0 | 0.00 | 0.00 | 0.00 | 91 | 1019.9 | |
| 20260831074615 | 66 | 0.0 | 0.0 | 0.00 | 0.00 | 0.00 | 94 | 1019.9 | |
| 20260831073615 | 66 | 0.0 | 0.0 | 0.00 | 0.00 | 0.00 | 94 | 1019.9 | |
| 20260831072615 | 66 | 0.0 | 1.0 | 0.00 | 0.00 | 0.00 | 94 | 1019.9 | |
| 20260831071615 | 66 | 89 | 0.0 | 1.0 | 0.00 | 0.00 | 0.00 | 93 | 1019.9 |
| 20260831070615 | 66 | 89 | 0.0 | 1.0 | 0.00 | 0.00 | 0.00 | 93 | 1019.9 |
| 20260831065615 | 66 | 0.0 | 0.0 | 0.00 | 0.00 | 0.00 | 93 | 1019.7 | |
| 20260831064615 | 66 | 0.0 | 1.0 | 0.00 | 0.00 | 0.00 | 94 | 1019.6 | |
| 20260831063615 | 66 | 0.0 | 0.0 | 0.00 | 0.00 | 0.00 | 94 | 1019.5 | |
| 20260831062615 | 67 | 0.0 | 0.0 | 0.00 | 0.00 | 0.00 | 94 | 1019.4 | |
| 20260831061615 | 67 | 0.0 | 0.0 | 0.00 | 0.00 | 0.00 | 93 | 1019.4 | |
| 20260831060615 | 67 | 32 | 0.0 | 1.0 | 0.00 | 0.00 | 0.00 | 93 | 1019.4 |
| 20260831055615 | 67 | 29 | 0.0 | 1.0 | 0.00 | 0.00 | 0.00 | 93 | 1019.4 |
| 20260831054616 | 67 | 29 | 0.0 | 1.0 | 0.00 | 0.00 | 0.00 | 93 | 1019.2 |
| 20260831053615 | 67 | 0.0 | 0.0 | 0.00 | 0.00 | 0.00 | 92 | 1019.2 | |
| 20260831052615 | 67 | 0.0 | 0.0 | 0.00 | 0.00 | 0.00 | 92 | 1019.0 | |
| 20260831051635 | 67 | 57 | 0.0 | 1.0 | 0.00 | 0.00 | 0.00 | 91 | 1018.7 |
| 20260831050615 | 67 | 0.0 | 0.0 | 0.00 | 0.00 | 0.00 | 91 | 1018.6 | |
| 20260831045615 | 68 | 205 | 0.0 | 1.0 | 0.00 | 0.00 | 0.00 | 92 | 1018.6 |
| 20260831044615 | 68 | 202 | 2.0 | 3.0 | 0.00 | 0.00 | 0.00 | 91 | 1018.6 |
| 20260831043635 | 69 | 213 | 1.0 | 3.0 | 0.00 | 0.00 | 0.00 | 90 | 1018.4 |
| 20260831042635 | 69 | 224 | 2.0 | 3.0 | 0.00 | 0.00 | 0.00 | 91 | 1018.3 |
| 20260831040615 | 69 | 210 | 3.0 | 5.0 | 0.00 | 0.00 | 0.00 | 92 | 1018.2 |
| 20260831035615 | 69 | 236 | 1.0 | 3.0 | 0.00 | 0.00 | 0.00 | 91 | 1018.3 |
| 20260831034635 | 70 | 203 | 2.0 | 4.0 | 0.00 | 0.00 | 0.00 | 91 | 1018.3 |
| 20260831033615 | 70 | 234 | 2.0 | 6.0 | 0.00 | 0.00 | 0.00 | 90 | 1018.3 |
| 20260831032615 | 71 | 199 | 3.0 | 5.0 | 0.00 | 0.00 | 0.00 | 88 | 1018.2 |
| 20260831031615 | 72 | 286 | 1.0 | 2.0 | 0.00 | 0.00 | 0.00 | 86 | 1018.3 |
| 20260831030615 | 74 | 208 | 4.0 | 7.0 | 0.00 | 0.00 | 0.00 | 83 | 1018.1 |
| 20260831025615 | 74 | 222 | 3.0 | 6.0 | 0.00 | 0.00 | 0.00 | 85 | 1018.0 |
| 20260831024615 | 73 | 216 | 1.0 | 3.0 | 0.00 | 0.00 | 0.00 | 87 | 1018.1 |
| 20260831023615 | 73 | 223 | 4.0 | 8.0 | 0.00 | 0.00 | 0.00 | 87 | 1018.2 |
| 20260831022615 | 73 | 242 | 1.0 | 3.0 | 0.00 | 0.00 | 0.00 | 85 | 1018.1 |
| 20260831021655 | 72 | 217 | 2.0 | 3.0 | 0.00 | 0.00 | 0.00 | 87 | 1018.3 |
| 20260831020615 | 73 | 249 | 2.0 | 5.0 | 0.00 | 0.00 | 0.00 | 85 | 1018.3 |
| 20260831015615 | 73 | 211 | 2.0 | 5.0 | 0.00 | 0.00 | 0.00 | 82 | 1018.2 |
| 20260831014616 | 73 | 237 | 3.0 | 7.0 | 0.00 | 0.00 | 0.00 | 82 | 1018.2 |
| 20260831013615 | 73 | 234 | 1.0 | 5.0 | 0.00 | 0.00 | 0.00 | 82 | 1018.2 |
| 20260831012615 | 74 | 238 | 2.0 | 6.0 | 0.00 | 0.00 | 0.00 | 81 | 1018.3 |
| 20260831011615 | 74 | 258 | 2.0 | 4.0 | 0.00 | 0.00 | 0.00 | 83 | 1018.3 |
| 20260831010655 | 74 | 249 | 3.0 | 8.0 | 0.00 | 0.00 | 0.00 | 81 | 1018.4 |
| 20260831005615 | 71 | 207 | 5.0 | 7.0 | 0.00 | 0.00 | 0.00 | 84 | 1018.4 |
| 20260831004615 | 72 | 232 | 2.0 | 5.0 | 0.00 | 0.00 | 0.00 | 84 | 1018.6 |
| 20260831003615 | 72 | 215 | 2.0 | 7.0 | 0.00 | 0.00 | 0.00 | 82 | 1018.7 |
| 20260831002617 | 73 | 225 | 4.0 | 7.0 | 0.00 | 0.00 | 0.00 | 78 | 1018.8 |
| 20260831001637 | 74 | 222 | 4.0 | 10.0 | 0.00 | 0.00 | 0.00 | 80 | 1018.8 |
| 20260831000618 | 74 | 199 | 1.0 | 4.0 | 0.00 | 0.00 | 0.00 | 78 | 1019.0 |
| 20260830235637 | 76 | 305 | 0.0 | 7.0 | 0.00 | 0.00 | 0.00 | 76 | 1019.1 |
| 20260830234618 | 76 | 227 | 3.0 | 4.0 | 0.00 | 0.00 | 0.00 | 79 | 1019.1 |
| 20260830233637 | 75 | 227 | 3.0 | 7.0 | 0.00 | 0.00 | 0.00 | 79 | 1019.3 |
| 20260830232637 | 75 | 214 | 3.0 | 5.0 | 0.00 | 0.00 | 0.00 | 82 | 1019.4 |
| 20260830231617 | 74 | 204 | 4.0 | 7.0 | 0.00 | 0.00 | 0.00 | 79 | 1019.2 |
| 20260830230617 | 74 | 203 | 4.0 | 8.0 | 0.00 | 0.00 | 0.00 | 81 | 1019.4 |
| 20260830225617 | 74 | 216 | 5.0 | 7.0 | 0.00 | 0.00 | 0.00 | 82 | 1019.5 |
| 20260830224618 | 74 | 221 | 5.0 | 9.0 | 0.00 | 0.00 | 0.00 | 82 | 1019.8 |
| 20260830223617 | 74 | 207 | 3.0 | 7.0 | 0.00 | 0.00 | 0.00 | 82 | 1019.9 |
| 20260830222618 | 75 | 235 | 4.0 | 8.0 | 0.00 | 0.00 | 0.00 | 81 | 1019.9 |
| 20260830221617 | 75 | 244 | 2.0 | 6.0 | 0.00 | 0.00 | 0.00 | 77 | 1020.0 |
| 20260830220618 | 75 | 223 | 4.0 | 8.0 | 0.00 | 0.00 | 0.00 | 80 | 1019.9 |
| 20260830215617 | 74 | 212 | 1.0 | 6.0 | 0.00 | 0.00 | 0.00 | 81 | 1020.0 |
| 20260830214618 | 74 | 235 | 2.0 | 3.0 | 0.00 | 0.00 | 0.00 | 84 | 1019.9 |
| 20260830213618 | 74 | 219 | 4.0 | 7.0 | 0.00 | 0.00 | 0.00 | 80 | 1019.9 |
| 20260830212618 | 74 | 223 | 1.0 | 2.0 | 0.00 | 0.00 | 0.00 | 80 | 1019.9 |
| 20260830211617 | 74 | 328 | 1.0 | 3.0 | 0.00 | 0.00 | 0.00 | 79 | 1019.9 |
| 20260830210618 | 74 | 270 | 2.0 | 5.0 | 0.00 | 0.00 | 0.00 | 78 | 1019.9 |
| 20260830205617 | 74 | 302 | 1.0 | 3.0 | 0.00 | 0.00 | 0.00 | 80 | 1019.9 |
| 20260830204638 | 72 | 239 | 1.0 | 2.0 | 0.00 | 0.00 | 0.00 | 80 | 1020.0 |
| 20260830203637 | 73 | 335 | 2.0 | 4.0 | 0.00 | 0.00 | 0.00 | 77 | 1020.0 |
| 20260830202617 | 73 | 217 | 2.0 | 4.0 | 0.00 | 0.00 | 0.00 | 78 | 1020.0 |
| 20260830201618 | 72 | 268 | 1.0 | 3.0 | 0.00 | 0.00 | 0.00 | 81 | 1020.0 |
| 20260830200617 | 72 | 297 | 1.0 | 2.0 | 0.00 | 0.00 | 0.00 | 80 | 1020.1 |
| 20260830195618 | 71 | 356 | 2.0 | 3.0 | 0.00 | 0.00 | 0.00 | 80 | 1019.9 |
| 20260830194637 | 71 | 350 | 1.0 | 3.0 | 0.00 | 0.00 | 0.00 | 79 | 1020.1 |
| 20260830193617 | 71 | 309 | 2.0 | 3.0 | 0.00 | 0.00 | 0.00 | 78 | 1020.0 |
| 20260830192617 | 70 | 246 | 0.0 | 1.0 | 0.00 | 0.00 | 0.00 | 79 | 1019.9 |
| 20260830191637 | 70 | 4 | 0.0 | 3.0 | 0.00 | 0.00 | 0.00 | 80 | 1020.1 |
| 20260830190617 | 70 | 338 | 2.0 | 4.0 | 0.00 | 0.00 | 0.00 | 80 | 1020.2 |
| 20260830185618 | 70 | 293 | 1.0 | 2.0 | 0.00 | 0.00 | 0.00 | 77 | 1020.1 |
| 20260830184638 | 69 | 134 | 2.0 | 3.0 | 0.00 | 0.00 | 0.00 | 79 | 1020.0 |
| 20260830183617 | 67 | 278 | 0.0 | 1.0 | 0.00 | 0.00 | 0.00 | 82 | 1020.1 |
| 20260830182617 | 66 | 230 | 1.0 | 2.0 | 0.00 | 0.00 | 0.00 | 84 | 1020.1 |
| 20260830181615 | 64 | 229 | 2.0 | 3.0 | 0.00 | 0.00 | 0.00 | 87 | 1019.9 |
| 20260830180615 | 62 | 180 | 0.0 | 1.0 | 0.00 | 0.00 | 0.00 | 86 | 1019.8 |
| 20260830175615 | 61 | 119 | 0.0 | 1.0 | 0.00 | 0.00 | 0.00 | 87 | 1019.6 |
| 20260830174615 | 60 | 0.0 | 1.0 | 0.00 | 0.00 | 0.00 | 86 | 1019.6 | |
| 20260830173615 | 60 | 130 | 1.0 | 2.0 | 0.00 | 0.00 | 0.00 | 86 | 1019.5 |
| 20260830172635 | 59 | 99 | 2.0 | 3.0 | 0.00 | 0.00 | 0.00 | 84 | 1019.5 |
| 20260830171615 | 58 | 121 | 3.0 | 3.0 | 0.00 | 0.00 | 0.00 | 84 | 1019.3 |
| 20260830170615 | 59 | 108 | 2.0 | 3.0 | 0.00 | 0.00 | 0.00 | 84 | 1019.2 |
| 20260830165615 | 59 | 103 | 3.0 | 3.0 | 0.00 | 0.00 | 0.00 | 85 | 1019.2 |
| 20260830164615 | 58 | 93 | 3.0 | 3.0 | 0.00 | 0.00 | 0.00 | 85 | 1019.0 |
| 20260830163615 | 58 | 100 | 2.0 | 3.0 | 0.00 | 0.00 | 0.00 | 86 | 1018.6 |
| 20260830162615 | 58 | 97 | 2.0 | 3.0 | 0.00 | 0.00 | 0.00 | 88 | 1018.4 |
| 20260830161615 | 58 | 103 | 3.0 | 3.0 | 0.00 | 0.00 | 0.00 | 87 | 1018.4 |
| 20260830160615 | 57 | 108 | 3.0 | 4.0 | 0.00 | 0.00 | 0.00 | 87 | 1018.3 |
| 20260830155615 | 58 | 106 | 3.0 | 3.0 | 0.00 | 0.00 | 0.00 | 86 | 1018.3 |
| 20260830154615 | 59 | 120 | 1.0 | 2.0 | 0.00 | 0.00 | 0.00 | 88 | 1018.4 |
| 20260830153615 | 59 | 105 | 3.0 | 5.0 | 0.00 | 0.00 | 0.00 | 88 | 1018.5 |
| 20260830152615 | 59 | 0.0 | 1.0 | 0.00 | 0.00 | 0.00 | 88 | 1018.5 | |
| 20260830151635 | 59 | 41 | 2.0 | 3.0 | 0.00 | 0.00 | 0.00 | 88 | 1018.3 |
| 20260830150615 | 59 | 108 | 3.0 | 5.0 | 0.00 | 0.00 | 0.00 | 89 | 1018.2 |
| 20260830145615 | 58 | 113 | 1.0 | 3.0 | 0.00 | 0.00 | 0.00 | 89 | 1018.3 |
| 20260830144615 | 58 | 107 | 3.0 | 4.0 | 0.00 | 0.00 | 0.00 | 86 | 1018.2 |
| 20260830143615 | 58 | 110 | 2.0 | 3.0 | 0.00 | 0.00 | 0.00 | 86 | 1018.0 |
| 20260830142615 | 59 | 101 | 3.0 | 4.0 | 0.00 | 0.00 | 0.00 | 84 | 1017.9 |
| 20260830141615 | 59 | 96 | 1.0 | 2.0 | 0.00 | 0.00 | 0.00 | 83 | 1017.9 |
| 20260830140615 | 59 | 96 | 2.0 | 3.0 | 0.00 | 0.00 | 0.00 | 87 | 1017.7 |
| 20260830135635 | 58 | 102 | 2.0 | 3.0 | 0.00 | 0.00 | 0.00 | 89 | 1017.7 |
| 20260830134635 | 58 | 98 | 2.0 | 3.0 | 0.00 | 0.00 | 0.00 | 86 | 1017.7 |
| 20260830133615 | 58 | 103 | 3.0 | 4.0 | 0.00 | 0.00 | 0.00 | 84 | 1017.7 |
| 20260830132615 | 58 | 103 | 3.0 | 3.0 | 0.00 | 0.00 | 0.00 | 83 | 1017.5 |
| 20260830131615 | 58 | 108 | 2.0 | 3.0 | 0.00 | 0.00 | 0.00 | 85 | 1017.4 |
| 20260830130615 | 58 | 102 | 3.0 | 4.0 | 0.00 | 0.00 | 0.00 | 84 | 1017.4 |
| 20260830125615 | 59 | 108 | 3.0 | 4.0 | 0.00 | 0.00 | 0.00 | 87 | 1017.5 |
| 20260830124635 | 59 | 109 | 2.0 | 3.0 | 0.00 | 0.00 | 0.00 | 86 | 1017.7 |
| 20260830123615 | 59 | 108 | 2.0 | 3.0 | 0.00 | 0.00 | 0.00 | 86 | 1017.6 |
| 20260830122615 | 59 | 101 | 2.0 | 3.0 | 0.00 | 0.00 | 0.00 | 89 | 1017.7 |
| 20260830121615 | 59 | 112 | 2.0 | 2.0 | 0.00 | 0.00 | 0.00 | 89 | 1017.8 |
| 20260830120617 | 59 | 113 | 2.0 | 3.0 | 0.00 | 0.00 | 0.00 | 89 | 1017.9 |
| 20260830115617 | 59 | 108 | 2.0 | 3.0 | 0.00 | 0.00 | 0.00 | 88 | 1018.0 |
| 20260830114618 | 59 | 114 | 2.0 | 3.0 | 0.00 | 0.00 | 0.00 | 86 | 1018.0 |
| 20260830113617 | 59 | 121 | 2.0 | 3.0 | 0.00 | 0.00 | 0.00 | 85 | 1018.0 |
| 20260830112637 | 59 | 100 | 2.0 | 2.0 | 0.00 | 0.00 | 0.00 | 87 | 1018.1 |
| 20260830111617 | 58 | 104 | 3.0 | 3.0 | 0.00 | 0.00 | 0.00 | 84 | 1018.1 |
| 20260830110617 | 59 | 114 | 3.0 | 4.0 | 0.00 | 0.00 | 0.00 | 84 | 1018.0 |
| 20260830105617 | 59 | 121 | 1.0 | 2.0 | 0.00 | 0.00 | 0.00 | 90 | 1018.1 |
| 20260830104617 | 59 | 118 | 1.0 | 3.0 | 0.00 | 0.00 | 0.00 | 86 | 1018.4 |
| 20260830103617 | 59 | 121 | 2.0 | 3.0 | 0.00 | 0.00 | 0.00 | 87 | 1018.3 |
| 20260830102617 | 60 | 116 | 2.0 | 3.0 | 0.00 | 0.00 | 0.00 | 86 | 1018.5 |
| 20260830101617 | 60 | 101 | 3.0 | 3.0 | 0.00 | 0.00 | 0.00 | 83 | 1018.5 |
| 20260830100617 | 61 | 107 | 2.0 | 4.0 | 0.00 | 0.00 | 0.00 | 85 | 1018.5 |
| 20260830095638 | 62 | 103 | 1.0 | 2.0 | 0.00 | 0.00 | 0.00 | 84 | 1018.6 |
| 20260830094617 | 63 | 113 | 0.0 | 2.0 | 0.00 | 0.00 | 0.00 | 87 | 1018.7 |
| 20260830093617 | 63 | 118 | 1.0 | 2.0 | 0.00 | 0.00 | 0.00 | 84 | 1018.7 |
| 20260830092617 | 63 | 99 | 1.0 | 2.0 | 0.00 | 0.00 | 0.00 | 90 | 1018.7 |
| 20260830091637 | 63 | 129 | 1.0 | 2.0 | 0.00 | 0.00 | 0.00 | 89 | 1018.9 |
| 20260830090617 | 63 | 114 | 1.0 | 2.0 | 0.00 | 0.00 | 0.00 | 88 | 1018.9 |
| 20260830085617 | 63 | 93 | 2.0 | 3.0 | 0.00 | 0.00 | 0.00 | 90 | 1019.0 |
| 20260830084617 | 63 | 148 | 1.0 | 2.0 | 0.00 | 0.00 | 0.00 | 89 | 1018.9 |
| 20260830083617 | 63 | 108 | 0.0 | 1.0 | 0.00 | 0.00 | 0.00 | 90 | 1018.8 |